Tulsa Jones, OK

10:02 PM CDT on March 26, 2017 (GMT -0500)
Jones Jr.

Weather History for KRVS - August, 2014

Change the Weather History Date:

Friday, August 15, 2014

  Actual Average (KTUL) Record (KTUL)
Temperature  
Mean Temperature 78 °F -  
Max Temperature 91 °F 93 °F 109 °F (1936)
Min Temperature 66 °F 71 °F 53 °F (1994)
Cooling Degree Days 14    
Growing Degree Days 28 (Base 50)    
Moisture  
Dew Point 68 °F    
Average Humidity 66    
Maximum Humidity 97    
Minimum Humidity 45    
Precipitation  
Precipitation 0.00 in - - ()
Sea Level Pressure  
Sea Level Pressure 29.95 in    
Wind  
Wind Speed 6 mph (South)    
Max Wind Speed 15 mph    
Max Gust Speed 21 mph    
Visibility 10 miles    
Events      
Averages and records for this station are not official NWS values.
T = Trace of Precipitation, MM = Missing Value Source: NWS Daily Summary

Daily Weather History Graph

Daily Weather History Graph

Search for Another Location

Airport or City:

Trip Planner

Search our weather history database for the weather conditions in past years. The results will help you decide how hot, cold, wet, or windy it might be!

Date:

Astronomy

Aug. 15, 2014 Rise Set
Actual Time 6:42 AM CDT 8:13 PM CDT
Civil Twilight 6:15 AM CDT 8:40 PM CDT
Nautical Twilight 5:42 AM CDT 9:13 PM CDT
Astronomical Twilight 5:07 AM CDT 9:47 PM CDT
Moon 11:29 PM CDT (8/15) 12:14 PM CDT (8/15)
Length of Visible Light 14h 25m
Length of Day
13h 31m
Waning Gibbous, 69% of the Moon is Illuminated
Aug 15
Waning Gibbous
Aug 17
Last Quarter
Aug 25
New
Sep 2
First Quarter
Sep 8
Full

Hourly Weather History & Observations

Time (CDT) Temp. Heat Index Dew Point Humidity Pressure Visibility Wind Dir Wind Speed Gust Speed Precip Events Conditions
12:53 AM 75.9 °F - 68.0 °F 76% 29.99 in 10.0 mi SSE 3.5 mph - N/A   Clear
1:53 AM 75.9 °F - 68.0 °F 76% 29.98 in 10.0 mi South 3.5 mph - N/A   Clear
2:53 AM 71.1 °F - 68.0 °F 90% 29.98 in 10.0 mi Calm Calm - N/A   Clear
3:53 AM 70.0 °F - 68.0 °F 93% 29.98 in 10.0 mi Calm Calm - N/A   Clear
4:53 AM 69.1 °F - 66.9 °F 93% 29.98 in 10.0 mi Calm Calm - N/A   Clear
5:53 AM 68.0 °F - 66.9 °F 96% 29.99 in 10.0 mi Calm Calm - N/A   Clear
6:53 AM 66.9 °F - 66.0 °F 97% 30.00 in 6.0 mi Calm Calm - N/A   Clear
7:53 AM 72.0 °F - 66.9 °F 84% 30.02 in 10.0 mi Calm Calm - N/A   Clear
9:53 AM 81.0 °F 83.0 °F 66.0 °F 60% 30.01 in 10.0 mi South 13.8 mph - N/A   Clear
10:53 AM 84.9 °F 87.1 °F 66.0 °F 53% 30.00 in 10.0 mi South 15.0 mph 19.6 mph N/A   Clear
11:53 AM 87.1 °F 89.2 °F 66.0 °F 49% 29.99 in 10.0 mi South 12.7 mph - N/A   Clear
12:53 PM 89.1 °F 92.1 °F 66.9 °F 48% 29.97 in 10.0 mi South 13.8 mph - N/A   Clear
1:53 PM 90.0 °F 92.8 °F 66.9 °F 46% 29.95 in 10.0 mi South 15.0 mph 20.7 mph N/A   Clear
2:53 PM 91.9 °F 95.9 °F 68.0 °F 45% 29.94 in 10.0 mi SSE 10.4 mph - N/A   Clear
3:53 PM 91.0 °F 95.6 °F 69.1 °F 48% 29.91 in 10.0 mi SSE 11.5 mph - N/A   Clear
4:53 PM 91.9 °F 95.9 °F 68.0 °F 45% 29.91 in 10.0 mi South 12.7 mph 19.6 mph N/A   Clear
5:53 PM 90.0 °F 94.5 °F 69.1 °F 50% 29.90 in 10.0 mi South 10.4 mph 20.7 mph N/A   Clear
6:53 PM 88.0 °F 92.9 °F 70.0 °F 55% 29.88 in 10.0 mi SSE 12.7 mph 19.6 mph N/A   Clear
7:53 PM 84.9 °F 89.4 °F 70.0 °F 61% 29.88 in 10.0 mi SSE 6.9 mph - N/A   Clear
8:53 PM 82.9 °F 86.5 °F 69.1 °F 63% 29.89 in 10.0 mi South 8.1 mph - N/A   Clear
9:53 PM 82.0 °F 84.9 °F 68.0 °F 62% 29.90 in 10.0 mi South 9.2 mph - N/A   Clear
10:53 PM 81.0 °F 84.1 °F 69.1 °F 67% 29.90 in 10.0 mi South 12.7 mph - N/A   Clear